Temperature
21 20 18 18 19 18 18 18 18 20 20 19 18 17 15 14 13 13 12 11 11 10 10 9 9 9 9 9 10 11 11 12 12 12 11 11 12 12 12 12 12 12 12 12
20 18 18 19 19 19 18 18 18 19 19 18 17 16 14 13 12 12 11 11 10 10 9 9 8 8 8 7 7 8 8 9 10 10 10 10 11 11 11 11 12 12 11 11
18 18 18 19 18 17 17 17 16 16 16 17 17 15 12 12 12 12 11 10 10 9 9 9 8 8 7 7 6 6 6 7 7 8 8 9 9 10 10 11 11 11 11 10
18 18 18 18 17 16 16 17 16 15 14 15 17 14 11 11 11 11 10 10 10 9 9 8 8 7 7 7 6 6 6 6 6 6 7 7 8 8 9 10 10 10 10 10
17 16 16 16 16 16 15 15 15 15 14 14 15 15 13 12 10 10 10 10 9 9 8 8 8 7 7 7 6 6 6 6 5 5 6 6 7 7 8 9 9 10 10 9
17 16 16 15 16 17 16 15 16 16 15 14 16 15 13 10 9 9 10 10 9 9 8 8 7 7 7 6 6 6 6 6 5 5 4 5 5 6 7 8 9 9 9 9
18 16 16 15 15 15 15 13 14 14 14 15 16 15 10 9 10 10 10 9 9 8 8 7 7 7 6 6 6 6 6 5 5 4 4 4 4 5 6 7 8 8 8 9
15 16 14 14 13 13 14 14 12 11 13 14 15 13 8 10 11 10 9 9 8 7 7 7 6 6 6 6 5 5 5 5 4 3 3 3 3 3 4 5 7 7 8 7
13 14 15 14 14 13 13 13 13 12 12 12 14 7 8 11 10 10 9 8 7 7 6 6 5 5 5 4 4 4 4 4 3 3 2 2 2 2 3 4 5 6 7 7
13 12 15 15 14 14 14 13 11 12 11 10 12 13 9 9 8 8 7 7 6 6 5 5 4 4 3 3 2 2 2 2 2 2 1 0 0 1 1 2 4 5 6 6
12 11 13 15 14 12 12 13 12 11 11 10 9 10 10 8 7 6 6 6 6 5 4 4 3 2 2 1 1 1 1 1 1 1 -0 -0 -1 -1 -0 1 2 3 4 5
11 10 11 13 12 12 12 12 11 9 9 9 8 9 10 8 7 7 6 5 5 4 4 3 2 1 0 -0 -0 -0 -0 -0 -1 -1 -1 -2 -2 -2 -2 -1 0 2 2 3
9 10 10 12 11 11 12 12 11 9 7 6 6 7 10 8 7 6 5 5 4 3 2 1 0 -0 -1 -1 -1 -1 -1 -1 -1 -2 -2 -3 -3 -4 -3 -2 -1 0 1 1
9 9 10 10 10 10 9 9 9 8 6 5 6 6 7 6 5 5 4 4 3 1 1 -0 -1 -2 -2 -2 -2 -2 -2 -2 -2 -2 -3 -4 -4 -4 -4 -3 -2 -1 -1 -0
8 8 9 9 10 9 9 8 8 7 7 5 5 5 5 5 4 4 3 3 1 -0 -1 -2 -2 -3 -3 -3 -3 -3 -3 -3 -3 -4 -4 -5 -5 -5 -4 -4 -3 -2 -2 -1
8 7 8 8 9 9 8 8 8 7 6 5 5 4 5 5 4 3 2 1 -1 -2 -2 -3 -4 -4 -4 -4 -4 -4 -4 -5 -5 -5 -6 -5 -5 -5 -5 -4 -4 -3 -3 -2
7 7 6 5 7 7 7 6 5 5 5 4 3 3 4 3 3 2 1 -1 -2 -3 -4 -5 -6 -6 -6 -6 -6 -6 -6 -6 -6 -6 -6 -6 -6 -5 -5 -5 -4 -4 -4 -4
6 6 5 4 4 3 5 6 5 4 5 4 4 4 3 2 1 1 -1 -3 -4 -5 -6 -6 -7 -7 -7 -7 -7 -7 -7 -7 -7 -8 -7 -7 -7 -6 -6 -6 -6 -5 -5 -5
6 6 4 2 2 4 5 4 4 3 3 4 3 3 2 1 0 0 -2 -4 -5 -6 -7 -7 -8 -8 -8 -8 -8 -8 -8 -8 -8 -8 -8 -8 -8 -7 -7 -7 -7 -7 -6 -6
5 5 4 3 2 2 4 4 5 4 3 4 3 2 1 -1 -2 -2 -4 -5 -6 -7 -8 -8 -9 -9 -9 -9 -9 -10 -10 -9 -9 -9 -9 -9 -9 -8 -8 -8 -8 -8 -7 -7
4 4 2 2 2 3 5 5 5 2 1 3 3 1 -1 -2 -3 -4 -5 -6 -7 -8 -9 -9 -9 -10 -10 -10 -10 -10 -10 -10 -10 -10 -9 -9 -9 -9 -9 -9 -9 -9 -9 -8
5 4 4 3 1 2 5 4 3 2 3 2 1 -1 -3 -4 -5 -6 -7 -7 -8 -9 -10 -10 -10 -11 -11 -11 -11 -11 -11 -10 -10 -10 -10 -10 -10 -10 -9 -9 -9 -9 -9 -9
4 4 3 3 3 5 5 5 4 3 2 1 -1 -2 -4 -5 -6 -7 -8 -8 -9 -10 -10 -11 -11 -11 -11 -11 -11 -11 -11 -11 -11 -11 -11 -11 -10 -10 -10 -10 -10 -10 -10 -10
5 4 3 3 4 5 5 4 3 2 1 -1 -2 -4 -5 -6 -7 -8 -9 -9 -10 -11 -11 -11 -12 -12 -12 -12 -12 -12 -12 -11 -11 -11 -12 -12 -12 -12 -11 -11 -11 -11 -11 -11
4 4 3 3 4 4 4 3 2 1 -0 -2 -4 -6 -6 -7 -8 -9 -10 -10 -11 -11 -11 -12 -12 -12 -12 -12 -12 -13 -13 -12 -13 -13 -13 -13 -13 -13 -13 -12 -12 -12 -12 -12
4 3 3 3 3 3 3 2 1 -0 -2 -4 -6 -7 -7 -8 -9 -10 -10 -10 -11 -11 -11 -12 -13 -13 -13 -13 -13 -13 -13 -13 -14 -14 -14 -14 -14 -13 -13 -13 -13 -13 -13 -12
Wind_Speed
3 2 7 8 8 6 8 9 11 8 5 5 6 2 10 11 12 12 11 12 12 13 13 14 15 15 16 17 18 18 18 18 16 12 10 8 6 6 6 5 5 5 6 6
3 7 7 7 6 7 9 10 8 7 12 12 9 1 12 12 12 11 10 11 12 12 13 13 14 14 14 14 14 15 15 15 15 13 13 10 8 6 6 5 4 5 6 6
8 5 7 7 6 9 10 7 7 10 13 10 7 3 12 11 11 11 11 10 10 12 12 12 12 11 10 10 10 13 12 12 13 15 13 13 10 7 6 5 5 5 6 6
6 6 7 6 9 8 7 10 11 12 9 6 7 2 10 10 10 10 9 9 9 10 10 10 10 10 10 9 8 10 11 12 12 14 15 18 14 11 10 7 6 8 8 7
6 6 8 7 7 7 7 12 17 16 9 7 7 6 8 10 8 9 8 9 9 9 10 11 11 10 10 9 9 10 11 11 12 14 15 16 16 13 11 10 9 7 6 6
5 5 5 6 8 5 9 13 17 7 1 4 2 5 5 4 7 7 8 9 10 10 11 11 11 10 10 11 11 12 11 10 10 12 14 16 19 19 16 13 10 6 4 4
4 6 4 5 8 7 10 8 6 5 1 2 6 4 6 7 7 7 8 10 11 12 13 13 14 15 15 15 14 13 12 10 9 10 12 15 18 20 18 13 9 7 4 3
8 2 4 5 5 6 8 6 5 4 5 9 9 1 8 6 5 8 11 12 13 14 14 15 15 15 15 15 15 14 13 10 9 10 12 14 17 16 16 14 8 4 3 4
8 5 4 5 3 5 6 6 4 4 8 7 2 6 4 4 5 12 14 15 15 15 15 16 16 16 17 17 16 16 16 11 9 10 11 14 16 19 20 19 11 3 2 4
7 8 6 4 6 4 3 3 5 5 6 7 8 3 5 7 12 15 16 16 16 16 16 16 16 17 18 18 17 17 16 13 10 10 12 16 17 19 20 19 12 5 3 5
6 6 8 6 2 5 6 3 4 5 5 5 6 3 9 12 13 14 15 16 17 18 18 16 16 17 19 19 18 17 16 15 12 12 13 15 16 18 19 18 13 5 2 5
7 5 7 5 6 4 2 4 5 5 6 6 7 4 10 14 12 14 17 20 21 20 17 17 19 20 20 20 19 17 15 14 14 14 15 16 17 17 18 18 15 7 2 2
7 5 7 0 2 1 2 4 6 6 5 6 6 8 16 21 20 21 22 23 22 19 18 19 20 20 20 20 19 17 15 14 14 15 15 16 17 17 17 17 15 10 5 2
3 4 5 6 7 6 8 11 10 8 5 8 9 14 18 18 19 20 20 21 19 18 20 21 21 21 20 19 18 18 16 15 15 15 15 16 16 16 16 15 13 11 8 4
3 4 7 9 11 10 10 11 10 8 8 8 11 14 15 14 17 19 21 23 20 20 23 23 23 21 20 19 18 17 16 15 15 15 15 16 16 15 14 14 13 10 9 7
1 4 8 7 7 7 11 8 4 5 8 10 13 14 12 14 16 19 22 19 19 22 23 23 23 22 20 19 18 17 16 15 15 15 15 15 16 14 14 13 12 10 10 10
3 3 4 5 11 11 4 7 8 6 8 10 12 10 14 17 20 22 20 17 20 22 21 21 20 20 19 18 17 17 16 15 15 14 15 16 16 14 13 14 14 13 12 11
4 5 3 5 7 5 5 8 8 6 8 9 9 13 15 17 18 17 14 19 20 20 19 18 17 17 17 17 17 15 14 14 14 14 14 15 16 15 14 13 13 11 9 9
3 4 3 3 5 9 5 6 6 7 10 7 12 14 17 20 18 8 16 18 17 17 16 15 15 14 15 16 16 14 12 12 13 13 13 13 14 14 14 13 12 9 8 7
2 3 2 1 2 4 4 4 7 8 6 12 14 14 16 19 16 11 17 17 16 15 14 15 14 13 14 15 14 12 12 12 13 12 11 10 11 12 12 11 10 8 7 6
3 4 3 3 4 5 6 6 8 6 7 12 13 14 14 13 12 15 17 15 14 14 14 14 13 11 11 13 12 12 12 14 13 12 10 10 10 10 10 10 8 8 8 7
2 2 2 3 3 5 7 7 5 7 9 11 10 10 13 14 15 15 15 14 14 14 14 14 12 11 10 11 10 11 13 15 15 12 11 10 10 10 10 9 9 8 8 8
2 1 2 2 4 6 7 6 6 7 8 8 9 9 11 13 12 14 14 13 13 13 13 13 12 11 10 10 9 11 13 15 16 15 12 11 11 10 9 8 8 8 7 7
2 4 1 4 5 7 7 7 7 8 7 9 9 9 9 9 11 12 12 11 12 13 12 11 12 12 11 10 9 10 12 14 14 14 13 12 10 10 10 10 7 5 6 6
3 1 2 5 7 6 7 9 9 8 8 9 10 9 8 9 9 10 10 11 11 11 10 10 10 10 10 11 10 10 12 13 13 12 12 12 12 10 9 10 10 8 5 6
3 3 2 2 6 6 9 10 9 7 7 8 10 9 8 8 9 9 8 8 7 8 8 9 9 10 11 12 11 11 12 13 13 13 12 10 10 10 9 8 9 15 15 17
Wind_Direction
233 351 33 12 11 335 318 306 299 306 71 1 308 330 102 81 69 61 52 47 35 37 35 29 25 21 20 16 9 3 1 355 349 340 330 319 308 302 290 272 271 287 286 286
292 66 16 345 312 301 299 295 316 348 351 330 287 140 102 84 74 65 55 48 35 25 25 24 23 17 17 13 4 358 358 353 348 339 328 313 300 290 290 298 305 307 298 289
47 40 349 323 1 1 323 4 350 317 316 280 253 154 114 97 85 75 61 48 40 26 19 16 15 9 6 4 355 353 349 350 347 341 334 328 317 304 291 280 267 262 269 273
76 27 349 2 35 359 316 356 322 302 309 305 313 248 141 122 94 72 58 41 32 24 14 8 4 359 353 348 340 340 345 348 349 347 341 334 323 310 294 276 247 225 230 251
65 30 12 20 355 328 306 307 286 274 266 276 257 248 163 140 93 66 49 36 25 19 8 0 354 347 338 333 334 340 343 347 349 346 341 333 325 316 308 302 288 247 216 222
109 92 49 356 309 312 312 298 287 259 190 271 280 204 113 86 77 60 42 28 17 11 3 353 344 337 331 333 338 339 335 338 341 340 337 332 325 320 313 305 300 286 249 220
115 119 79 11 346 6 354 343 352 6 254 203 355 300 98 108 92 62 37 21 14 7 358 348 345 343 339 336 334 329 323 324 333 339 336 331 325 319 310 300 298 299 284 245
346 34 67 43 27 326 325 347 20 325 297 310 302 73 124 136 104 50 32 19 9 2 353 346 343 339 334 330 329 328 324 322 335 341 336 332 326 321 313 303 293 300 327 339
345 319 111 99 25 327 352 11 349 281 276 272 256 106 181 207 44 28 18 12 3 355 348 346 345 342 339 337 336 335 330 329 337 342 342 333 329 323 317 308 291 271 80 48
336 300 301 151 184 182 27 320 316 312 317 304 301 0 100 46 24 16 10 4 355 350 350 349 347 346 345 341 337 335 332 333 339 352 347 333 326 322 320 314 288 253 148 109
331 302 303 299 13 27 348 318 336 314 279 281 298 45 79 49 27 12 3 356 351 350 351 350 349 348 344 339 334 332 333 339 346 349 341 331 326 324 322 320 312 288 178 136
5 317 286 309 69 71 346 352 355 316 298 313 305 280 74 40 25 10 359 354 351 349 350 352 350 346 342 338 335 335 339 343 348 346 340 334 330 329 326 325 323 319 313 124
346 307 303 275 99 133 285 337 336 316 297 262 254 278 355 7 7 3 356 349 345 345 350 351 348 344 341 339 340 341 345 351 351 348 343 339 337 333 329 328 331 338 352 32
310 273 269 297 319 335 317 320 326 321 285 284 296 322 346 357 357 352 347 342 344 350 350 348 346 343 341 343 345 347 352 356 353 351 348 345 341 338 333 332 334 342 348 352
322 278 294 298 298 293 294 303 308 301 299 306 326 332 339 355 351 346 341 340 349 349 348 348 345 344 346 350 352 354 356 356 355 353 351 347 343 341 341 340 341 349 2 22
291 285 299 284 285 307 290 300 348 3 356 337 329 323 349 348 346 342 338 346 348 347 347 347 347 348 351 354 354 354 355 355 355 355 352 350 348 347 349 350 354 5 21 31
313 307 317 298 334 321 335 56 40 14 343 333 323 335 350 345 344 337 336 353 349 346 346 348 349 350 354 356 353 353 352 352 355 356 354 353 352 354 360 5 11 20 28 33
310 309 300 305 337 331 54 67 49 358 327 341 0 350 348 346 335 326 0 1 349 346 348 350 351 352 354 354 351 349 351 353 354 355 354 355 355 358 4 9 11 14 20 26
311 326 339 347 319 290 91 51 14 332 309 27 360 348 347 341 327 329 13 358 349 351 351 351 353 355 352 350 345 343 349 351 352 352 351 352 354 356 0 4 4 4 9 21
281 292 292 295 295 283 55 39 343 326 303 10 359 350 346 340 328 333 352 350 350 354 355 353 352 353 353 346 340 342 349 351 349 345 345 347 351 351 354 355 356 356 357 3
208 211 188 243 259 276 51 5 355 338 317 349 352 350 344 331 318 323 339 345 351 354 355 353 351 351 344 336 339 348 353 351 344 341 345 349 351 348 350 349 350 351 352 351
320 300 213 213 251 275 24 10 357 313 333 347 356 351 333 323 324 332 338 343 352 354 353 351 348 343 333 331 342 352 353 347 343 343 350 351 350 350 353 346 350 352 353 354
213 273 317 282 262 342 10 343 330 355 350 356 354 347 336 328 332 335 338 346 353 352 349 347 343 335 328 331 347 353 349 347 347 347 347 348 349 348 344 342 351 352 354 3
146 93 37 303 306 317 323 336 357 19 17 7 1 349 345 337 335 337 340 348 350 346 345 342 336 330 327 332 348 352 349 347 347 346 346 347 348 348 348 346 347 351 350 357
319 114 219 264 291 327 356 351 4 31 20 7 352 344 349 341 337 340 345 348 346 341 336 330 323 323 331 340 347 353 351 347 344 343 343 345 346 342 345 345 342 341 330 333
233 201 244 309 7 341 320 340 22 27 19 6 345 341 349 346 341 348 350 347 338 329 324 321 322 334 342 345 348 353 351 346 345 345 342 344 344 342 343 340 341 346 346 344
Height
1504 1508 1515 1514 1511 1513 1512 1510 1509 1501 1497 1501 1503 1506 1511 1512 1514 1517 1520 1521 1520 1519 1517 1514 1510 1507 1503 1499 1496 1493 1490 1487 1485 1483 1481 1479 1477 1476 1474 1473 1471 1470 1468 1467
1504 1515 1514 1512 1510 1509 1510 1509 1506 1501 1499 1502 1502 1505 1512 1515 1518 1521 1523 1523 1523 1521 1518 1515 1512 1509 1506 1502 1499 1494 1489 1485 1483 1480 1478 1475 1473 1471 1470 1468 1466 1465 1464 1463
1514 1517 1514 1512 1511 1514 1511 1511 1513 1512 1505 1499 1499 1507 1517 1519 1521 1523 1525 1525 1524 1522 1520 1517 1514 1511 1508 1504 1500 1494 1489 1484 1481 1477 1473 1470 1467 1465 1464 1462 1461 1460 1459 1459
1514 1517 1516 1514 1518 1520 1518 1511 1512 1511 1514 1510 1502 1514 1523 1521 1523 1525 1526 1526 1525 1523 1521 1518 1515 1511 1508 1504 1499 1493 1486 1482 1477 1473 1470 1466 1463 1461 1459 1457 1455 1454 1453 1453
1519 1521 1521 1521 1523 1521 1518 1513 1508 1505 1510 1512 1505 1509 1513 1518 1523 1526 1526 1526 1525 1523 1520 1518 1514 1511 1506 1501 1495 1489 1484 1479 1475 1471 1468 1464 1460 1456 1453 1452 1450 1449 1448 1448
1519 1522 1524 1526 1521 1517 1516 1509 1497 1495 1504 1515 1499 1504 1514 1521 1525 1526 1526 1526 1524 1522 1519 1516 1513 1508 1502 1496 1491 1486 1481 1477 1473 1469 1465 1461 1456 1452 1448 1446 1445 1444 1443 1443
1519 1523 1524 1524 1523 1520 1518 1519 1516 1515 1512 1507 1497 1501 1522 1525 1525 1526 1526 1525 1523 1521 1517 1513 1508 1503 1498 1493 1489 1485 1480 1475 1470 1466 1462 1457 1452 1447 1443 1441 1440 1439 1438 1438
1531 1526 1528 1527 1529 1530 1524 1523 1535 1539 1526 1513 1501 1507 1531 1523 1524 1525 1525 1524 1522 1519 1516 1512 1508 1503 1498 1493 1488 1482 1477 1472 1466 1462 1457 1453 1448 1442 1437 1435 1434 1433 1432 1432
1541 1534 1526 1528 1528 1528 1529 1529 1528 1534 1527 1521 1503 1530 1529 1522 1524 1524 1524 1523 1522 1520 1516 1512 1507 1502 1497 1491 1485 1480 1474 1468 1463 1458 1453 1447 1442 1436 1430 1427 1426 1426 1426 1427
1548 1545 1530 1527 1528 1529 1531 1532 1535 1533 1533 1532 1515 1510 1527 1526 1528 1527 1526 1525 1523 1520 1515 1510 1506 1501 1495 1489 1483 1477 1471 1466 1460 1454 1449 1443 1437 1431 1424 1420 1418 1418 1418 1419
1550 1550 1538 1529 1528 1535 1535 1531 1532 1535 1533 1538 1532 1526 1528 1531 1530 1529 1528 1526 1522 1517 1513 1508 1503 1498 1492 1485 1479 1473 1467 1462 1456 1450 1445 1439 1432 1425 1419 1414 1411 1410 1411 1411
1553 1555 1547 1537 1537 1535 1537 1537 1540 1547 1541 1538 1541 1535 1520 1525 1527 1527 1525 1522 1519 1516 1512 1507 1502 1496 1489 1482 1475 1470 1464 1458 1452 1447 1441 1434 1428 1421 1414 1409 1406 1405 1404 1405
1558 1555 1550 1540 1542 1541 1539 1538 1540 1543 1545 1546 1547 1533 1516 1520 1522 1524 1524 1523 1521 1516 1511 1506 1501 1494 1487 1480 1473 1467 1461 1455 1450 1443 1437 1431 1425 1418 1412 1407 1403 1401 1400 1400
1558 1556 1555 1555 1549 1545 1545 1544 1544 1546 1552 1547 1541 1534 1530 1530 1530 1529 1527 1525 1521 1516 1511 1505 1499 1492 1485 1479 1472 1466 1460 1454 1447 1441 1435 1429 1423 1418 1412 1407 1403 1400 1398 1397
1558 1557 1550 1547 1545 1544 1544 1545 1545 1546 1545 1549 1545 1543 1539 1537 1535 1532 1529 1524 1519 1515 1510 1504 1498 1491 1484 1477 1471 1465 1459 1453 1447 1441 1435 1429 1424 1418 1413 1408 1404 1401 1399 1398
1557 1557 1553 1548 1541 1542 1542 1541 1543 1545 1547 1548 1547 1545 1542 1539 1536 1532 1528 1523 1519 1514 1509 1503 1497 1490 1483 1477 1471 1465 1459 1453 1447 1441 1436 1430 1425 1420 1415 1411 1407 1403 1401 1400
1558 1559 1558 1557 1548 1547 1544 1549 1550 1553 1552 1553 1553 1549 1543 1539 1537 1534 1528 1523 1519 1514 1509 1502 1496 1490 1484 1478 1471 1465 1460 1454 1448 1442 1437 1432 1427 1422 1418 1414 1411 1408 1405 1404
1562 1560 1561 1563 1560 1565 1557 1553 1554 1555 1553 1552 1550 1547 1544 1541 1538 1534 1528 1523 1518 1513 1507 1501 1496 1489 1484 1478 1472 1466 1460 1454 1449 1443 1438 1434 1429 1425 1421 1417 1415 1412 1410 1408
1563 1563 1565 1572 1570 1561 1554 1557 1557 1557 1555 1551 1549 1545 1543 1539 1534 1529 1527 1523 1519 1513 1507 1502 1496 1490 1483 1477 1471 1465 1460 1454 1449 1444 1440 1436 1431 1427 1423 1420 1417 1415 1413 1411
1564 1565 1569 1569 1575 1572 1560 1559 1555 1555 1552 1549 1547 1545 1543 1539 1533 1527 1525 1521 1516 1511 1506 1500 1494 1489 1482 1476 1471 1465 1460 1455 1450 1446 1442 1437 1433 1429 1425 1422 1419 1417 1415 1413
1565 1566 1571 1572 1573 1564 1559 1556 1556 1561 1560 1551 1548 1545 1543 1541 1538 1531 1525 1520 1516 1510 1505 1499 1493 1488 1482 1477 1471 1466 1461 1456 1452 1448 1443 1439 1434 1430 1427 1423 1421 1418 1415 1413
1563 1565 1565 1568 1573 1572 1558 1556 1559 1559 1553 1550 1548 1545 1542 1538 1534 1529 1524 1519 1514 1509 1503 1498 1492 1487 1482 1477 1472 1467 1461 1457 1453 1448 1444 1439 1435 1431 1428 1424 1421 1418 1416 1413
1562 1563 1564 1564 1566 1559 1557 1558 1557 1555 1552 1549 1545 1541 1538 1534 1530 1526 1522 1518 1513 1508 1502 1497 1492 1487 1483 1478 1473 1468 1463 1457 1453 1448 1444 1440 1436 1432 1429 1425 1421 1418 1415 1413
1559 1561 1563 1563 1560 1559 1558 1557 1556 1553 1550 1547 1544 1539 1535 1532 1528 1524 1520 1516 1511 1506 1502 1497 1492 1488 1483 1479 1474 1469 1463 1457 1452 1448 1443 1439 1435 1431 1428 1425 1422 1419 1416 1413
1561 1561 1563 1562 1559 1558 1557 1557 1554 1550 1547 1544 1540 1537 1533 1530 1526 1523 1519 1514 1510 1505 1501 1497 1492 1488 1484 1479 1474 1468 1463 1457 1452 1447 1443 1438 1434 1431 1427 1424 1421 1418 1416 1414
1560 1561 1562 1561 1560 1560 1557 1555 1551 1548 1544 1541 1537 1534 1531 1528 1524 1521 1517 1513 1509 1505 1500 1496 1492 1488 1484 1479 1473 1468 1462 1457 1452 1447 1442 1438 1434 1430 1426 1423 1419 1416 1415 1412